When you browse on this site, cookies collect data to enhance your experience and personalize the content and advertising you see.
Visit our Privacy Policy to learn more. By continuing to use the site, you agree to this use of cookies and data.
  • In France
  • List of Countries
  • For 7 days
  • Water Temperature
  • Weather Map
  • Weather Widgets
  • user-avatar
    Login

    Hourly Weather Boston

    Today, 19 August, Monday

    Time Temperature Precipitation Wind Pressure Humidity
    00:00 +13°C° 0 mm 6 mps 754 mmHg 80%
    01:00 +13°C° 0 mm 6 mps 754 mmHg 82%
    02:00 +13°C° 0 mm 6 mps 754 mmHg 84%
    03:00 +11°C° 0 mm 6 mps 754 mmHg 86%
    04:00 +13°C° 0 mm 6 mps 755 mmHg 86%
    05:00 +13°C° 0 mm 6 mps 755 mmHg 87%
    06:00 +13°C° 0 mm 6 mps 756 mmHg 88%
    07:00 +14°C° 0 mm 6 mps 756 mmHg 83%
    08:00 +15°C° 0 mm 6 mps 757 mmHg 77%
    09:00 +16°C° 0 mm 5 mps 757 mmHg 71%
    10:00 +17°C° 0 mm 5 mps 757 mmHg 66%
    11:00 +19°C° 0 mm 5 mps 758 mmHg 60%
    12:00 +20°C° 0 mm 5 mps 758 mmHg 54%
    13:00 +21°C° 0.2 mm 5 mps 758 mmHg 54%
    14:00 +21°C° 0.2 mm 6 mps 758 mmHg 54%
    15:00 +21°C° 0.2 mm 6 mps 758 mmHg 54%
    16:00 +20°C° 0.4 mm 5 mps 759 mmHg 58%
    17:00 +19°C° 0.4 mm 5 mps 759 mmHg 61%
    18:00 +18°C° 0.4 mm 4 mps 759 mmHg 65%
    19:00 +17°C° 0 mm 4 mps 760 mmHg 68%
    20:00 +15°C° 0 mm 4 mps 760 mmHg 72%
    21:00 +14°C° 0 mm 5 mps 761 mmHg 76%
    22:00 +13°C° 0 mm 5 mps 761 mmHg 78%
    23:00 +12°C° 0 mm 4 mps 761 mmHg 80%

    Tomorrow, 20 August, Tuesday

    Time Temperature Precipitation Wind Pressure Humidity
    00:00 +12°C° 0 mm 4 mps 761 mmHg 82%
    01:00 +12°C° 0 mm 4 mps 762 mmHg 84%
    02:00 +11°C° 0 mm 4 mps 762 mmHg 86%
    03:00 +11°C° 0 mm 4 mps 762 mmHg 88%
    04:00 +11°C° 0 mm 4 mps 762 mmHg 87%
    05:00 +11°C° 0 mm 4 mps 763 mmHg 87%
    06:00 +11°C° 0 mm 4 mps 763 mmHg 86%
    07:00 +12°C° 0 mm 4 mps 763 mmHg 79%
    08:00 +14°C° 0 mm 5 mps 764 mmHg 71%
    09:00 +15°C° 0 mm 5 mps 764 mmHg 64%
    10:00 +16°C° 0 mm 5 mps 764 mmHg 61%
    11:00 +17°C° 0 mm 5 mps 765 mmHg 59%
    12:00 +17°C° 0 mm 6 mps 765 mmHg 56%
    13:00 +19°C° 0 mm 5 mps 765 mmHg 56%
    14:00 +19°C° 0 mm 5 mps 765 mmHg 56%
    15:00 +19°C° 0 mm 5 mps 765 mmHg 56%
    16:00 +19°C° 0 mm 4 mps 765 mmHg 58%
    17:00 +19°C° 0 mm 4 mps 765 mmHg 59%
    18:00 +18°C° 0 mm 3 mps 766 mmHg 61%
    19:00 +17°C° 0 mm 3 mps 766 mmHg 66%
    20:00 +16°C° 0 mm 3 mps 767 mmHg 70%
    21:00 +14°C° 0 mm 3 mps 767 mmHg 74%
    22:00 +13°C° 0 mm 3 mps 767 mmHg 79%
    23:00 +13°C° 0 mm 3 mps 767 mmHg 84%

    Day after tomorrow, 21 August, Wednesday

    Time Temperature Precipitation Wind Pressure Humidity
    00:00 +12°C° 0 mm 3 mps 767 mmHg 89%
    01:00 +12°C° 0 mm 3 mps 767 mmHg 90%
    02:00 +12°C° 0 mm 3 mps 767 mmHg 91%
    03:00 +12°C° 0 mm 3 mps 767 mmHg 93%
    04:00 +12°C° 0 mm 3 mps 767 mmHg 91%
    05:00 +12°C° 0 mm 3 mps 767 mmHg 90%
    06:00 +12°C° 0 mm 3 mps 767 mmHg 89%
    07:00 +14°C° 0 mm 4 mps 767 mmHg 84%
    08:00 +15°C° 0 mm 4 mps 767 mmHg 78%
    09:00 +17°C° 0 mm 4 mps 767 mmHg 73%
    10:00 +18°C° 0 mm 4 mps 767 mmHg 68%
    11:00 +20°C° 0 mm 5 mps 767 mmHg 62%
    12:00 +21°C° 0 mm 5 mps 766 mmHg 57%
    13:00 +21°C° 0 mm 5 mps 766 mmHg 56%
    14:00 +21°C° 0 mm 5 mps 766 mmHg 56%
    15:00 +21°C° 0 mm 5 mps 766 mmHg 55%
    16:00 +21°C° 0.4 mm 5 mps 765 mmHg 60%
    17:00 +20°C° 0.4 mm 5 mps 765 mmHg 64%
    18:00 +19°C° 0.4 mm 5 mps 765 mmHg 68%
    19:00 +17°C° 0.1 mm 5 mps 765 mmHg 72%
    20:00 +17°C° 0.1 mm 4 mps 765 mmHg 75%
    21:00 +15°C° 0.1 mm 4 mps 765 mmHg 79%
    22:00 +15°C° 0 mm 5 mps 765 mmHg 79%
    23:00 +15°C° 0 mm 5 mps 765 mmHg 80%

    22 August, Thursday

    Time Temperature Precipitation Wind Pressure Humidity
    00:00 +14°C° 0 mm 5 mps 765 mmHg 80%
    01:00 +14°C° 0.1 mm 5 mps 764 mmHg 82%
    02:00 +14°C° 0.1 mm 5 mps 764 mmHg 84%
    03:00 +14°C° 0.1 mm 5 mps 764 mmHg 85%
    04:00 +14°C° 0.1 mm 5 mps 764 mmHg 86%
    05:00 +14°C° 0.1 mm 5 mps 764 mmHg 87%
    06:00 +14°C° 0.1 mm 5 mps 765 mmHg 87%
    07:00 +15°C° 0 mm 5 mps 765 mmHg 81%
    08:00 +16°C° 0 mm 5 mps 765 mmHg 75%
    09:00 +17°C° 0 mm 5 mps 765 mmHg 69%
    10:00 +19°C° 0 mm 5 mps 765 mmHg 64%
    11:00 +20°C° 0 mm 5 mps 765 mmHg 60%
    12:00 +21°C° 0 mm 4 mps 765 mmHg 56%
    13:00 +21°C° 0 mm 4 mps 765 mmHg 55%
    14:00 +22°C° 0 mm 5 mps 765 mmHg 53%
    15:00 +22°C° 0 mm 5 mps 765 mmHg 52%
    16:00 +21°C° 0 mm 4 mps 765 mmHg 55%
    17:00 +21°C° 0 mm 4 mps 765 mmHg 58%
    18:00 +20°C° 0 mm 4 mps 765 mmHg 61%
    19:00 +19°C° 0 mm 4 mps 765 mmHg 66%
    20:00 +18°C° 0 mm 4 mps 765 mmHg 70%
    21:00 +17°C° 0 mm 4 mps 766 mmHg 74%
    22:00 +15°C° 0 mm 4 mps 766 mmHg 77%
    23:00 +15°C° 0 mm 4 mps 765 mmHg 80%

    23 August, Friday

    Time Temperature Precipitation Wind Pressure Humidity
    00:00 +15°C° 0 mm 4 mps 765 mmHg 83%
    01:00 +15°C° 0 mm 4 mps 765 mmHg 85%
    02:00 +14°C° 0 mm 4 mps 765 mmHg 87%
    03:00 +14°C° 0 mm 4 mps 765 mmHg 89%
    04:00 +14°C° 0 mm 4 mps 765 mmHg 89%
    05:00 +14°C° 0 mm 5 mps 765 mmHg 89%
    06:00 +15°C° 0 mm 5 mps 765 mmHg 89%
    07:00 +16°C° 0 mm 5 mps 765 mmHg 83%
    08:00 +17°C° 0 mm 5 mps 765 mmHg 78%
    09:00 +20°C° 0 mm 5 mps 765 mmHg 72%
    10:00 +21°C° 0 mm 5 mps 765 mmHg 68%
    11:00 +22°C° 0 mm 5 mps 765 mmHg 65%
    12:00 +23°C° 0 mm 4 mps 765 mmHg 61%
    13:00 +23°C° 0 mm 4 mps 765 mmHg 59%
    14:00 +25°C° 0 mm 4 mps 764 mmHg 58%
    15:00 +25°C° 0 mm 4 mps 764 mmHg 56%
    16:00 +25°C° 0 mm 3 mps 764 mmHg 59%
    17:00 +24°C° 0 mm 3 mps 764 mmHg 63%
    18:00 +24°C° 0 mm 3 mps 764 mmHg 66%
    19:00 +21°C° 0 mm 2 mps 764 mmHg 69%
    20:00 +20°C° 0 mm 2 mps 764 mmHg 73%
    21:00 +19°C° 0 mm 2 mps 764 mmHg 76%
    22:00 +18°C° 0 mm 2 mps 764 mmHg 78%
    23:00 +18°C° 0 mm 2 mps 764 mmHg 80%

    24 August, Saturday

    Time Temperature Precipitation Wind Pressure Humidity
    00:00 +18°C° 0 mm 2 mps 764 mmHg 81%
    01:00 +17°C° 0 mm 2 mps 763 mmHg 82%
    02:00 +17°C° 0 mm 2 mps 763 mmHg 83%
    03:00 +16°C° 0 mm 2 mps 763 mmHg 84%
    04:00 +16°C° 0 mm 2 mps 763 mmHg 84%
    05:00 +16°C° 0 mm 2 mps 762 mmHg 84%
    06:00 +16°C° 0 mm 2 mps 762 mmHg 83%
    07:00 +18°C° 0 mm 2 mps 762 mmHg 77%
    08:00 +19°C° 0 mm 2 mps 762 mmHg 70%
    09:00 +21°C° 0 mm 2 mps 762 mmHg 64%
    10:00 +23°C° 0 mm 2 mps 762 mmHg 58%
    11:00 +24°C° 0 mm 2 mps 761 mmHg 52%
    12:00 +26°C° 0 mm 3 mps 761 mmHg 47%
    13:00 +26°C° 0 mm 3 mps 761 mmHg 45%
    14:00 +26°C° 0 mm 3 mps 760 mmHg 44%
    15:00 +27°C° 0 mm 3 mps 760 mmHg 43%
    16:00 +25°C° 0 mm 4 mps 760 mmHg 50%
    17:00 +23°C° 0 mm 4 mps 760 mmHg 56%
    18:00 +22°C° 0 mm 4 mps 759 mmHg 63%
    19:00 +21°C° 0 mm 4 mps 759 mmHg 65%
    20:00 +21°C° 0 mm 4 mps 759 mmHg 67%
    21:00 +20°C° 0 mm 4 mps 759 mmHg 69%
    22:00 +20°C° 0 mm 4 mps 759 mmHg 71%
    23:00 +19°C° 0 mm 4 mps 759 mmHg 73%
    Show more